Regional Weather Roundup
Issued by NWS

Home | Current Version | Previous Version | Graphics & Text | Print | Product List | Glossary On
Versions: 1 2 3 4 5 6 7 8 9 10 11 12 13 14 15 16 17 18 19 20 21 22 23 24 25 26 27 28 29 30 31 32 33 34 35 36 37 38 39 40 41 42 43 44 45 46 47 48 49 50
000
ASUS43 KDMX 010207
RWRIA

WEATHER ROUNDUP FOR IOWA
NATIONAL WEATHER SERVICE DES MOINES IA
900 PM CDT MON AUG 31 2015

NOTE: "FAIR" INDICATES FEW OR NO CLOUDS BELOW 12,000 FEET WITH NO
SIGNIFICANT WEATHER AND/OR OBSTRUCTIONS TO VISIBILITY.

* - THESE STATIONS ARE NOT NWS STATIONS...THUS NOT UNDER NWS
QUALITY CONTROL.  THEY ALSO DO NOT REPORT WEATHER SUCH
AS PRECIPITATION OR FOG.

IAZ001>003-012>014-020>022-031>034-043>046-010300-
   NORTHWEST IOWA

CITY           SKY/WX    TMP DP  RH WIND       PRES   REMARKS
CARROLL *      MOCLDY    68  68 100 CALM      29.94R
CHEROKEE *     CLEAR     72  70  94 SE3       29.92S
DENISON *      CLOUDY    70  70 100 SE5       29.92R
LE MARS *      CLEAR     73  70  88 SE8       29.91R
ORANGE CITY *  CLEAR     73  70  88 S7        29.91S
SHELDON *      CLEAR     72  68  88 SE8       29.90S
SIOUX CITY     CLEAR     73  67  81 SE7       29.89S
SPENCER        CLEAR     70  65  84 S8        29.93S HAZE
STORM LAKE *   CLEAR     70  68  94 S6        29.95R
$$

IAZ055>058-069>071-079>083-090>094-010300-
   SOUTHWEST IOWA

CITY           SKY/WX    TMP DP  RH WIND       PRES   REMARKS
ATLANTIC *     CLOUDY    70  68  94 CALM      29.94R
AUDUBON *      CLEAR     66  64  94 CALM      29.96R FOG
CLARINDA *     CLEAR     72  70  94 CALM      29.95R
COUNCIL BLFS *   N/A     75  70  83 SE3       29.93R
CRESTON *      CLEAR     73  68  83 S7        29.98R
LAMONI         CLEAR     78  68  71 S6        29.97R HX  80
RED OAK *      CLEAR     75  70  83 CALM      29.93R
SHENANDOAH *   CLEAR     75  70  83 SE7       29.93
$$

IAZ047>049-059>061-072>074-084-010300-
   CENTRAL IOWA

CITY           SKY/WX    TMP DP  RH WIND       PRES   REMARKS
AMES           PTCLDY    72  70  93 SE3       29.94R FOG
ANKENY *       PTCLDY    73  72  94 CALM      29.94R
CHARITON *     PTCLDY    75  72  88 S7        29.96R
DES MOINES     MOCLDY    79  71  76 S5        29.94R HX  82
GRINNELL*      CLEAR     73  70  88 S6        29.97R
KNOXVILLE *    PTCLDY    77  70  78 SE6       29.94S
MARSHALLTOWN   CLEAR     75  70  84 SE6       29.95R
PELLA *        CLEAR     75  73  94 SE3       29.96R
PERRY *          N/A     73  72  94 CALM      29.94S FOG
$$

IAZ004>006-015-016-023>025-035-036-010300-
   NORTH CENTRAL IOWA

CITY           SKY/WX    TMP DP  RH WIND       PRES   REMARKS
ALGONA *       PTCLDY    72  68  88 SW7       29.95R
CLARION *      PTCLDY    70  68  94 S6        29.95R FOG
ESTHERVILLE    CLEAR     67  65  93 S6        29.93R
FORT DODGE *   PTCLDY    72  66  83 CALM      29.96R
MASON CITY     PTCLDY    71  70  96 S3        29.96R FOG
FOREST CITY *  CLEAR     70  70 100 S3        29.95R
IOWA FALLS *     N/A     75  72  88 CALM      29.96R
$$

IAZ007>011-017>019-026>030-037>042-050>054-066-010300-
   NORTHEAST IOWA

CITY           SKY/WX    TMP DP  RH WIND       PRES   REMARKS
CEDAR RAPIDS   CLEAR     77  74  90 SE6       29.96R
CHARLES CITY * PTCLDY    75  75 100 SE6       29.96S
CLINTON *      CLEAR     75  72  88 SE7       30.02R
DECORAH *      MOCLDY    73  72  94 SE6       29.97R
DUBUQUE        CLEAR     74  71  91 SE7       30.00R
MONTICELLO *   CLEAR     75  73  94 SE6       29.98R
OELWEIN *      CLEAR     75  73  94 SE7       29.98R
WATERLOO       PTCLDY    78  72  81 S7        29.94R HX  80
$$

IAZ064-065-067-068-078-010300-
   EAST CENTRAL IOWA

CITY           SKY/WX    TMP DP  RH WIND       PRES   REMARKS
DAVENPORT      CLEAR     76  71  85 SE6       29.99R
IOWA CITY      CLEAR     77  72  84 SE3       29.97R
MT. PLEASANT * CLEAR     79  70  73 SE6       29.98R HX  81
MUSCATINE *    CLEAR     77  72  83 CALM      29.97S
QUAD CITIES    CLEAR     76  72  87 CALM      29.98R
$$

IAZ062-063-075>077-085>089-095>099-010300-
   SOUTHEAST IOWA

CITY           SKY/WX    TMP DP  RH WIND       PRES   REMARKS
BURLINGTON     PTCLDY    80  73  79 SE8       29.98R HX  84
FAIRFIELD *    CLEAR     75  70  83 SE3       29.97R
FORT MADISON * PTCLDY    79  73  83 S6        30.00R HX  82
KEOKUK *       CLEAR     79  72  78 SE7       29.98R HX  82
OSKALOOSA *      N/A     73  70  88 S5        29.97R
CENTERVILLE *  CLEAR     73  72  94 S5        29.99R
OTTUMWA        CLEAR     75  71  87 S5        29.95R
WASHINGTON *     N/A    N/A N/A N/A MISG        N/A
$$

ABBREVIATIONS USED IN REMARKS
   TC - TEMPERATURES IN CELSIUS
  WCI - WIND CHILL INDEX
   HX - HEAT INDEX
  VSB - VISIBILITY
$$




USA.gov is the U.S. government's official web portal to all federal, state and local government web resources and services.